Weather History for La Porte, IN

Change the Weather History Date:

Friday, February 8, 2013

  Actual Average (KVPZ) Record (KVPZ)
Temperature  
Mean Temperature 30 °F 26 °F  
Max Temperature 33 °F 33 °F 50 °F (2001)
Min Temperature 28 °F 18 °F -8 °F (2007)
Degree Days  
Heating Degree Days 34 39  
Month to date heating degree days 321  
Since 1 July heating degree days 4006  
Cooling Degree Days 0 0  
Month to date cooling degree days 0  
Year to date cooling degree days 0  
Moisture  
Dew Point 26 °F    
Average Humidity 81    
Maximum Humidity 100    
Minimum Humidity 69    
Precipitation  
Precipitation 0.08 in 0.05 in 0.42 in (2001)
Month to date precipitation 0.37  
Year to date precipitation 2.12  
Sea Level Pressure  
Sea Level Pressure 30.16 in    
Wind  
Wind Speed 14 mph (North)    
Max Wind Speed 23 mph    
Max Gust Speed 32 mph    
Visibility 9 miles    
Events Snow    
T = Trace of Precipitation, MM = Missing Value Source: NWS Daily Summary

Daily Weather History Graph

Daily Weather History Graph

Search for Another Location

Airport:

Trip Planner

Search our weather history database for the weather conditions in past years. The results will help you decide how hot, cold, wet, or windy it might be!

Date:

Astronomy

Feb. 08, 2013 Rise Set
Actual Time 6:50 AM CST 5:12 PM CST
Civil Twilight 6:21 AM CST 5:40 PM CST
Nautical Twilight 5:49 AM CST 6:13 PM CST
Astronomical Twilight 5:16 AM CST 6:46 PM CST
Moon 5:19 AM CST (2/8) 3:44 PM CST (2/8)
Length of Visible Light 11h 19m
Length of Day
10h 21m
Waning Crescent, 3% of the Moon is Illuminated
Feb 8
Waning Crescent
Feb 10
New
Feb 17
First Quarter
Feb 25
Full
Mar 4
Last Quarter

Hourly Weather History & Observations

Time (CST) Temp. Windchill Dew Point Humidity Pressure Visibility Wind Dir Wind Speed Gust Speed Precip Events Conditions
12:15 AM 32.5 °F 23.2 °F 32.5 °F 100% 29.85 in 5.0 mi NW 12.7 mph 17.3 mph N/A   Overcast
12:35 AM 32.9 °F 23.7 °F 32.9 °F 100% 29.86 in 10.0 mi NW 12.7 mph 19.6 mph N/A   Overcast
12:55 AM 33.1 °F 23.9 °F 32.9 °F 99% 29.86 in 10.0 mi NW 12.7 mph 19.6 mph N/A   Overcast
1:15 AM 33.3 °F 23.2 °F 32.9 °F 99% 29.87 in 7.0 mi NNW 15.0 mph 19.6 mph N/A   Overcast
1:35 AM 33.4 °F 24.3 °F 32.9 °F 98% 29.88 in 7.0 mi NNW 12.7 mph 21.9 mph N/A   Overcast
1:55 AM 33.4 °F 22.3 °F 32.2 °F 95% 29.88 in 10.0 mi NNW 18.4 mph 23.0 mph N/A   Overcast
2:15 AM 33.3 °F 21.5 °F 31.8 °F 94% 29.89 in 10.0 mi NNW 20.7 mph 27.6 mph N/A   Overcast
2:35 AM 33.1 °F 22.2 °F 31.1 °F 92% 29.90 in 10.0 mi NNW 17.3 mph 26.5 mph N/A   Overcast
2:55 AM 32.9 °F 22.4 °F 30.4 °F 90% 29.91 in 10.0 mi NNW 16.1 mph 23.0 mph N/A   Overcast
3:15 AM 32.7 °F 21.8 °F 30.0 °F 90% 29.92 in 10.0 mi NNW 17.3 mph 28.8 mph N/A   Overcast
3:35 AM 32.2 °F 22.3 °F 30.0 °F 92% 29.94 in 4.0 mi NNW 13.8 mph 25.3 mph N/A Snow Light Snow
3:55 AM 32.0 °F 21.2 °F 30.0 °F 92% 29.95 in 5.0 mi NNW 16.1 mph - N/A   Overcast
4:15 AM 32.0 °F 20.5 °F 29.3 °F 90% 29.96 in 7.0 mi North 18.4 mph 26.5 mph N/A   Overcast
4:35 AM 32.0 °F 20.8 °F 29.3 °F 90% 29.97 in 7.0 mi North 17.3 mph 25.3 mph N/A   Overcast
4:55 AM 32.0 °F 19.8 °F 28.4 °F 87% 29.98 in 10.0 mi NNW 20.7 mph 32.2 mph N/A   Overcast
5:15 AM 32.0 °F 20.5 °F 28.8 °F 88% 29.99 in 10.0 mi North 18.4 mph 26.5 mph N/A   Overcast
5:55 AM 32.0 °F 20.1 °F 28.4 °F 87% 30.01 in 10.0 mi North 19.6 mph 25.3 mph N/A   Overcast
6:15 AM 32.0 °F 21.2 °F 28.4 °F 87% 30.03 in 10.0 mi North 16.1 mph 21.9 mph N/A   Overcast
6:35 AM 32.0 °F 22.5 °F 27.9 °F 85% 30.04 in 10.0 mi North 12.7 mph 24.2 mph N/A   Overcast
6:55 AM 32.0 °F 20.8 °F 26.6 °F 80% 30.05 in 10.0 mi North 17.3 mph 28.8 mph N/A   Overcast
7:15 AM 32.0 °F 22.1 °F 26.6 °F 80% 30.06 in 10.0 mi North 13.8 mph 24.2 mph N/A   Overcast
7:35 AM 32.0 °F 20.5 °F 26.4 °F 80% 30.08 in 10.0 mi North 18.4 mph 26.5 mph N/A   Overcast
7:55 AM 31.8 °F 20.6 °F 26.6 °F 81% 30.09 in 10.0 mi North 17.3 mph 21.9 mph N/A   Overcast
8:15 AM 31.8 °F 20.2 °F 26.6 °F 81% 30.10 in 10.0 mi North 18.4 mph 27.6 mph N/A   Overcast
8:35 AM 31.8 °F 21.4 °F 26.8 °F 82% 30.12 in 10.0 mi North 15.0 mph 24.2 mph N/A   Overcast
8:55 AM 32.0 °F 21.2 °F 26.6 °F 80% 30.13 in 10.0 mi North 16.1 mph - N/A   Overcast
9:15 AM 32.0 °F 20.5 °F 26.4 °F 80% 30.14 in 10.0 mi North 18.4 mph 25.3 mph N/A   Overcast
9:35 AM 32.0 °F 19.2 °F 26.2 °F 79% 30.15 in 10.0 mi North 23.0 mph 27.6 mph N/A   Overcast
9:55 AM 31.6 °F 20.4 °F 25.3 °F 78% 30.16 in 10.0 mi North 17.3 mph - N/A   Overcast
10:15 AM 31.6 °F 19.0 °F 24.8 °F 76% 30.17 in 10.0 mi North 21.9 mph 27.6 mph N/A   Overcast
10:35 AM 31.5 °F 19.1 °F 24.8 °F 76% 30.19 in 10.0 mi North 20.7 mph 24.2 mph N/A   Overcast
10:55 AM 31.6 °F 20.0 °F 24.6 °F 75% 30.20 in 10.0 mi North 18.4 mph 27.6 mph N/A   Overcast
11:15 AM 31.6 °F 20.4 °F 24.8 °F 76% 30.20 in 10.0 mi North 17.3 mph 20.7 mph N/A   Overcast
11:35 AM 31.6 °F 19.0 °F 24.6 °F 75% 30.20 in 10.0 mi North 21.9 mph 32.2 mph N/A   Overcast
11:55 AM 32.0 °F 19.2 °F 24.1 °F 73% 30.20 in 10.0 mi North 23.0 mph 28.8 mph N/A   Mostly Cloudy
12:15 PM 32.0 °F 20.5 °F 24.1 °F 73% 30.21 in 10.0 mi North 18.4 mph 28.8 mph N/A   Mostly Cloudy
12:35 PM 32.4 °F 20.9 °F 24.3 °F 72% 30.21 in 10.0 mi North 18.4 mph 26.5 mph N/A   Scattered Clouds
12:55 PM 32.2 °F 20.7 °F 24.4 °F 73% 30.21 in 10.0 mi North 18.4 mph 26.5 mph N/A   Scattered Clouds
1:15 PM 31.8 °F 19.6 °F 23.9 °F 73% 30.22 in 10.0 mi North 20.7 mph 26.5 mph N/A   Mostly Cloudy
1:35 PM 31.8 °F 20.6 °F 23.9 °F 73% 30.23 in 10.0 mi North 17.3 mph 24.2 mph N/A   Overcast
1:55 PM 31.8 °F 20.2 °F 24.1 °F 73% 30.23 in 10.0 mi North 18.4 mph 24.2 mph N/A   Overcast
2:15 PM 32.0 °F 20.1 °F 23.7 °F 71% 30.23 in 10.0 mi North 19.6 mph - N/A   Overcast
2:35 PM 31.8 °F 22.3 °F 23.7 °F 72% 30.24 in 10.0 mi North 12.7 mph 21.9 mph N/A   Overcast
2:55 PM 31.8 °F 21.8 °F 23.4 °F 71% 30.24 in 10.0 mi North 13.8 mph 17.3 mph N/A   Overcast
3:15 PM 31.8 °F 21.4 °F 22.8 °F 69% 30.25 in 10.0 mi North 15.0 mph - N/A   Overcast
3:35 PM 31.6 °F 21.2 °F 23.5 °F 72% 30.26 in 10.0 mi North 15.0 mph 19.6 mph N/A   Overcast
3:55 PM 31.6 °F 24.4 °F 24.3 °F 74% 30.27 in 10.0 mi NNW 8.1 mph - N/A   Overcast
4:15 PM 31.1 °F 23.1 °F 27.5 °F 87% 30.27 in 7.0 mi North 9.2 mph - N/A   Overcast
4:35 PM 30.9 °F 21.2 °F 28.4 °F 90% 30.28 in 3.0 mi NNW 12.7 mph - N/A Snow Light Snow
4:55 PM 30.4 °F 21.5 °F 28.6 °F 93% 30.28 in 4.0 mi NNW 10.4 mph - N/A Snow Light Snow
5:15 PM 30.6 °F 21.8 °F 28.0 °F 90% 30.29 in 5.0 mi NNW 10.4 mph 16.1 mph N/A Snow Light Snow
5:35 PM 30.6 °F 21.2 °F 27.1 °F 87% 30.30 in 10.0 mi NNW 11.5 mph 20.7 mph N/A   Overcast
5:55 PM 30.4 °F 21.5 °F 26.6 °F 86% 30.31 in 10.0 mi NNW 10.4 mph - N/A   Overcast
6:15 PM 30.6 °F 22.4 °F 26.2 °F 84% 30.31 in 10.0 mi NNW 9.2 mph - N/A   Overcast
6:35 PM 30.6 °F 22.4 °F 25.3 °F 81% 30.32 in 10.0 mi NW 9.2 mph 16.1 mph N/A   Overcast
6:55 PM 30.2 °F 21.9 °F 24.8 °F 80% 30.33 in 10.0 mi NW 9.2 mph - N/A   Overcast
7:15 PM 30.4 °F 22.9 °F 24.4 °F 79% 30.32 in 10.0 mi North 8.1 mph - N/A   Overcast
7:35 PM 30.2 °F 21.9 °F 23.9 °F 77% 30.32 in 10.0 mi North 9.2 mph - N/A   Overcast
7:55 PM 30.2 °F 23.4 °F 23.7 °F 77% 30.33 in 10.0 mi NNW 6.9 mph - N/A   Overcast
8:15 PM 30.2 °F 24.3 °F 23.0 °F 75% 30.33 in 10.0 mi NNW 5.8 mph - N/A   Overcast
8:35 PM 30.2 °F 24.3 °F 23.0 °F 75% 30.34 in 10.0 mi NNW 5.8 mph - N/A   Overcast
8:55 PM 30.0 °F 25.2 °F 23.0 °F 75% 30.34 in 10.0 mi NNW 4.6 mph - N/A   Overcast
9:15 PM 30.0 °F 24.1 °F 23.2 °F 76% 30.34 in 10.0 mi North 5.8 mph - N/A   Overcast
9:35 PM 30.2 °F 24.3 °F 22.8 °F 74% 30.34 in 10.0 mi NNE 5.8 mph - N/A   Overcast
9:55 PM 30.0 °F 24.1 °F 22.1 °F 72% 30.35 in 10.0 mi NNE 5.8 mph - N/A   Overcast
10:15 PM 29.7 °F 23.7 °F 22.1 °F 73% 30.35 in 10.0 mi NNE 5.8 mph - N/A   Overcast
10:35 PM 29.3 °F 24.3 °F 21.7 °F 73% 30.36 in 10.0 mi North 4.6 mph - N/A   Overcast
10:55 PM 29.3 °F 24.3 °F 21.2 °F 72% 30.35 in 10.0 mi NE 4.6 mph - N/A   Overcast
11:15 PM 28.9 °F 22.8 °F 21.7 °F 74% 30.35 in 10.0 mi ENE 5.8 mph - N/A   Overcast
11:35 PM 28.2 °F 24.4 °F 21.9 °F 77% 30.35 in 10.0 mi ENE 3.5 mph - N/A   Overcast
11:55 PM 28.2 °F - 21.7 °F 77% 30.36 in 10.0 mi Calm Calm - N/A   Overcast